Glendive, MT

8:45 AM MST on December 08, 2019 (GMT -0700)
Dawson Community

Weather History for KGDV - October, 2019

Change the Weather History Date:

Sunday, October 27, 2019

  Actual Average Record
Temperature  
Mean Temperature 21 °F 43 °F  
Max Temperature 26 °F 54 °F 71 °F (1999)
Min Temperature 15 °F 31 °F 12 °F (2008)
Degree Days  
Heating Degree Days 44 22  
Month to date heating degree days 643 444  
Year to date heating degree days 6510 4843  
Since 1 July heating degree days 944 551  
Cooling Degree Days 0 0  
Month to date cooling degree days 0 0  
Year to date cooling degree days 465 382  
Since 1 July cooling degree days 465 382  
Moisture  
Dew Point 12 °F    
Average Humidity 69    
Maximum Humidity 81    
Minimum Humidity 50    
Precipitation  
Precipitation T in 0.02 in 0.23 in (2000)
Month to date precipitation 0.61 0.98  
Year to date precipitation 17.78 12.64  
Sea Level Pressure  
Sea Level Pressure 30.28 in    
Wind  
Wind Speed 15 mph (WNW)    
Max Wind Speed 23 mph    
Max Gust Speed 30 mph    
Visibility 10 miles    
Events Snow    
T = Trace of Precipitation, MM = Missing Value Source: NWS Daily Summary

Daily Weather History Graph

Daily Weather History Graph

Search for Another Location

Airport or City:

Astronomy

Oct. 27, 2019 Rise Set
Actual Time 7:34 AM MDT 5:50 PM MDT
Civil Twilight 7:03 AM MDT 6:22 PM MDT
Nautical Twilight 6:27 AM MDT 6:58 PM MDT
Astronomical Twilight 5:51 AM MDT 7:33 PM MDT
Moon 6:39 AM MDT (10/27) 6:06 PM MDT (10/27)
Length of Visible Light 11h 19m
Length of Day
10h 16m
Waning Crescent, 0% of the Moon is Illuminated
Oct 27
Waning Crescent
Oct 27
New
Nov 4
First Quarter
Nov 12
Full
Nov 19
Last Quarter

Hourly Weather History & Observations

Time (MDT) Temp. Windchill Dew Point Humidity Pressure Visibility Wind Dir Wind Speed Gust Speed Precip Events Conditions
12:51 AM 26.6 °F 13.8 °F 21.2 °F 80% 30.17 in 9.0 mi NNW 17.3 mph - 0.00 in Snow Light Snow
12:56 AM 26.1 °F 12.0 °F 19.0 °F 75% 30.26 in 9.0 mi NNW 20.7 mph 29.9 mph 0.00 in Snow Light Snow
1:17 AM 24.8 °F 11.5 °F 19.4 °F 80% 30.18 in 8.0 mi NW 17.3 mph - 0.00 in Snow Light Snow
1:56 AM 25.0 °F 11.3 °F 19.0 °F 78% 30.28 in 10.0 mi NW 18.4 mph 23.0 mph 0.00 in   Overcast
2:56 AM 23.0 °F 11.1 °F 16.0 °F 74% 30.29 in 10.0 mi NNW 12.7 mph - N/A   Mostly Cloudy
3:22 AM 24.8 °F 12.9 °F 17.6 °F 74% 30.20 in 9.0 mi NW 13.8 mph - 0.00 in Snow Light Snow
3:56 AM 23.0 °F 8.3 °F 14.0 °F 68% 30.29 in 10.0 mi NW 19.6 mph 26.5 mph 0.00 in   Overcast
4:56 AM 21.0 °F 6.2 °F 10.0 °F 63% 30.29 in 10.0 mi NW 18.4 mph 26.5 mph N/A   Mostly Cloudy
5:56 AM 21.0 °F 6.6 °F 10.0 °F 63% 30.31 in 10.0 mi NW 17.3 mph - N/A   Mostly Cloudy
6:56 AM 19.9 °F 6.7 °F 10.0 °F 65% 30.32 in 10.0 mi NW 13.8 mph 20.7 mph N/A   Overcast
7:56 AM 19.0 °F 6.1 °F 10.0 °F 68% 30.34 in 10.0 mi NW 12.7 mph - N/A   Overcast
8:56 AM 21.0 °F 6.6 °F 10.0 °F 63% 30.35 in 10.0 mi NW 17.3 mph 21.9 mph N/A   Mostly Cloudy
9:56 AM 21.9 °F 11.0 °F 12.0 °F 66% 30.36 in 10.0 mi NW 10.4 mph - 0.00 in Snow Light Snow
10:12 AM 21.2 °F 8.9 °F 12.2 °F 68% 30.25 in 4.0 mi NNW 12.7 mph - 0.00 in Snow Light Snow
10:43 AM 19.4 °F 10.4 °F 14.0 °F 80% 30.25 in 6.0 mi WNW 6.9 mph - 0.00 in Snow Light Snow
10:56 AM 21.0 °F 9.9 °F 12.0 °F 68% 30.36 in 10.0 mi NW 10.4 mph - 0.00 in   Mostly Cloudy
11:56 AM 21.9 °F 7.3 °F 10.9 °F 63% 30.36 in 10.0 mi NW 18.4 mph - 0.00 in Snow Light Snow
12:56 PM 24.1 °F 8.7 °F 9.0 °F 53% 30.33 in 10.0 mi WNW 23.0 mph 28.8 mph 0.00 in   Mostly Cloudy
2:56 PM 23.0 °F 8.3 °F 7.0 °F 50% 30.32 in 10.0 mi NW 19.6 mph 28.8 mph N/A   Overcast
3:56 PM 21.0 °F 7.1 °F 8.1 °F 57% 30.31 in 10.0 mi WNW 16.1 mph 21.9 mph N/A   Overcast
4:56 PM 21.0 °F 6.6 °F 8.1 °F 57% 30.31 in 10.0 mi WNW 17.3 mph - N/A   Overcast
5:56 PM 19.9 °F 7.3 °F 7.0 °F 57% 30.30 in 10.0 mi WNW 12.7 mph - N/A   Overcast
6:56 PM 16.0 °F 8.8 °F 8.1 °F 71% 30.30 in 10.0 mi West 4.6 mph - N/A   Clear
7:56 PM 15.1 °F 6.4 °F 9.0 °F 77% 30.28 in 10.0 mi SSW 5.8 mph - N/A   Clear
8:56 PM 15.1 °F 4.2 °F 10.0 °F 80% 30.26 in 10.0 mi SW 8.1 mph - N/A   Clear
9:56 PM 15.1 °F 3.3 °F 10.0 °F 80% 30.24 in 10.0 mi SW 9.2 mph - N/A   Clear
10:56 PM 16.0 °F 4.4 °F 10.9 °F 81% 30.22 in 10.0 mi WSW 9.2 mph - N/A   Clear
11:56 PM 17.1 °F 5.8 °F 10.9 °F 77% 30.19 in 10.0 mi WSW 9.2 mph - N/A   Clear